STARLINK-3048 (49148 NORAD) Tracking and Keplerian Element Data

This shows tracking and keplerian element data for the satellite.

Feedback or suggestion? Click here.




ElementValue
Catalog49148
NameSTARLINK-3048
Epoch Orbit367
Epoch Day300.58334491
Epoch Year2021
RAAN4.7057
Inclination70.0015
Eccentricity0.0004015
Argument of Perigee294.3335
Mean Anonmoly80.7347
Mean Motion15.69770036
Decay Rate-0.00049017
L11 49148U 21082U 21300.58334491 -.00049017 00000-0 -41081-3 0 9992
L22 49148 70.0015 4.7057 0004015 294.3335 80.7347 15.69770036 3672

Live tracking and technical data element details for STARLINK-3048 (NORAD 49148). STARLINK-3048 can be tracked NOW for your location showing map with azimuth and elevation plus other details from your city location.

Track the satellite on the map from your city or location and see movement details for azimuth, elevation, latitude, longitude, range, height, and movement on the map or in text.







IsCatalogInMostPopularTable: catalog: 49148, numindb: 9
Update: records affected: 1



GetName: 49148 STARLINK-3048

Hit Count: updated at: Thu, 28 Oct 2021 11:41:49 GMT